Flag for Honduras Weather past 2 weeks in Tegucigalpa, Honduras

Now
66 °F

Passing clouds.


Feels Like: 66 °F
Forecast: 62 / 78 °F
Wind: 9 mph from North

Location: Tegucigalpa Airport

Current Time: Dec 26, 2014 at 1:25:56 AM

Latest Report: Dec 26, 2014 at 1:00 AM


Visibility: N/A

Pressure: 30.09 "Hg

Humidity: 94%

Dew point: 64 °F

Location of TegucigalpaLocation

Historic Weather in Tegucigalpa — Graph

°F

Tegucigalpa temperature yesterday

Maximum temperature yesterday: 79 °F (at 3:00 PM)
Minimum temperature yesterday: 66 °F (at 5:00 AM)
Average temperature yesterday: 71 °F

Past Weeks' High & Low Weather Summary

 TemperatureHumidityPressure
High86 °F (Dec 24, 1:00 PM)100% (Dec 11, 1:00 AM)30.24 "Hg (Dec 11, 1:00 AM)
Low54 °F (Dec 19, 5:00 AM)40% (Dec 21, 1:00 PM)29.92 "Hg (Dec 22, 3:00 PM)
Average68 °F79%30.10 "Hg
* Reported Midnight between Dec 10 and Dec 11 — Midnight between Dec 25 and Dec 26, Tegucigalpa, Weather by CustomWeather, © 2014

Note: Actual official high and low records may vary slightly from our data, if they occured in-between our weather recording intervals... More about our weather records

Advertising

Tegucigalpa weather history for previous 24 hours

 ConditionsComfort  
Time TempWeatherWind HumidityBarometerVisibility
12:00 AM
Dec 26
66 °FPassing clouds.12 mph94%30.12 "HgN/A
11:00 PM
Dec 25
66 °FPassing clouds.6 mph94%30.12 "HgN/A
10:00 PM66 °FPassing clouds.9 mph94%30.15 "HgN/A
9:00 PM66 °FPassing clouds.12 mph100%30.15 "HgN/A
8:00 PM66 °FPassing clouds.12 mph100%30.12 "HgN/A
7:00 PM66 °FPassing clouds.14 mph100%30.09 "HgN/A
6:00 PM72 °FPassing clouds.12 mph78%30.07 "Hg6 mi
5:00 PM73 °FBroken clouds.12 mph69%30.07 "HgN/A
4:00 PM77 °FBroken clouds.15 mph65%30.07 "HgN/A
3:00 PM79 °FBroken clouds.17 mph61%30.07 "HgN/A
2:00 PM75 °FScattered clouds.12 mph65%30.07 "HgN/A
1:00 PM77 °FPartly sunny.14 mph65%30.09 "HgN/A
12:00 PM77 °FScattered clouds.12 mph61%30.12 "HgN/A
11:00 AM77 °FScattered clouds.21 mph61%30.15 "HgN/A
10:00 AM73 °FPartly sunny.7 mph74%30.18 "HgN/A
9:00 AM72 °FPartly sunny.12 mph78%30.18 "HgN/A
8:00 AM70 °FPartly sunny.12 mph83%30.15 "HgN/A
7:00 AM68 °FPartly sunny.8 mph83%30.15 "HgN/A
6:00 AM66 °FPassing clouds.9 mph88%30.12 "HgN/A
5:00 AM66 °FPassing clouds.8 mph88%30.12 "HgN/A
4:00 AM68 °FPassing clouds.9 mph83%30.07 "HgN/A
3:00 AM68 °FPassing clouds.12 mph83%30.07 "HgN/A
Weather by CustomWeather, © 2014

See weather overviewHow to use our weather pages